Погода в Леуре

Австралия     33°42′41″S   150°19′52″E
темп.,
°C
ветер,
м/с
пор.,
м/с
влажн.,
%
обл.,
%
осадки,
мм/ч
давл.,
гПа
погр.,
м
20 сентября, пн
пн2001:00+6ссз23690 0.0 101953
04:00+9сз38450 0.0 1016427
07:00+11сз212380 0.0 1015835
10:00+18зсз515260 0.0 10131699
13:00+21зсз717240 0.0 10092098
16:00+19зсз617313 0.0 10072717
19:00+5з399288 0.7 1015540
22:00+5зсз31285100 0.9 1014587
21 сентября, вт
вт2101:00+2ссз119248 0.0 101425
04:00+4зсз0181100 0.1 101437
07:00+3з277925 0.1 1016875
10:00+6ю3560100 0.2 10171397
13:00+13ю4525100 0.4 10153129
16:00+12ююв3733100 0.4 10172305
19:00+4в117184 0.0 102210
22:00+6з116993 0.0 102550
22 сентября, ср
ср2201:00+2сз11935 0.0 102520
04:000зсз11962 0.0 102521
07:00+4зсз12695 0.0 1025107
10:00+13ююв24395 0.0 10231436
13:00+17юв233111 0.0 10202010
16:00+17юв233361 0.0 10192026
19:00+8зсз11740 0.0 102312
22:00+5сз21880 0.0 102431
23 сентября, чт
чт2301:00+4сз21930 0.0 102434
04:00+3сз22932 0.0 102343
07:00+7сз23713 0.0 1022100
10:00+19зсз24300 0.0 10191149
13:00+22з45240 0.0 10161858
16:00+19з46340 0.0 10161441
19:00+11зсз25710 0.0 1019217
22:00+7зсз24932 0.0 102071
24 сентября, пт
пт2401:00+6зсз23901 0.0 101958
04:00+6сз238980 0.0 101854
07:00+9сз2372100 0.0 1018113
10:00+18зсз49386 0.0 10151676
13:00+20з511292 0.0 10122640
16:00+18зсз412405 0.0 10122087
19:00+12з26602 0.0 1014225
22:00+7зсз21740 0.0 101728